DELTA 1 DEB, 21268

Orbit data source: Space-Track

DELTA 1 DEB, 21268 is space debris in SSO originally from a launch on Thu, 12 Jun 1975 UTC launched from the Air Force Western Test Range (AFWTR). Debris objects in space refer to the collection of defunct objects orbiting the Earth. Examples of debris include non-operational satellites, rocket bodies, and fragments generated from explosions, collisions, or faulty payload assembly.

Loading next visibility...
Identifier
21268, 1975-052D
Orbit
SSO
Country
Flag of USUS
Related business
Manufacturer
Unknown
Mission
Spacecraft
Bus & Motor
Unknown
Mass
Unknown
Launch date (UTC)
1975-06-12 (51 years ago)
Launch vehicle
Unknown
Launch site
Air Force Western Test Range (AFWTR)
Object type
Payload
Rocket body
Debris
Shape & HBR
Unknown shape, 0.3 m
Radar Cross Section
Medium (>0.1 m² and <1 m²)

Expand to show TLE details & history
Last TLE update: 12 hours ago

TLE from 12 hours ago
0 DELTA 1 DEB
1 21268U 75052D   26124.69516427 -.00000245  00000-0 -56580-3 0  9993
2 21268  99.8283 166.3772 0199398  39.8410  73.4560 13.06710189668108
Epoch: 2026-05-04T16:41Z
TLE epoch observation values (Epoch: 2026-05-04T16:41:02.192Z)
Latitude
62.87718°
Longitude
-106.79926°
Altitude
1,206.181 km
Speed
7.276 km/s
True Right ascension
00h 24m 09s
True Declination
62° 44' 44"
Sunlit
Object was in daylight at epoch
Visualization orbit readout
Latitude
Unknown
Longitude
Unknown
Altitude
Unknown
Speed
Unknown
Apparent Right ascension
Unknown
Apparent Declination
Unknown
Sunlit
N/A
Visualization observer readout
Local Sidereal Time
12:31:05
Azimuth
Unknown
Elevation
Unknown
Doppler factor
Unknown
Orbital elements
Apogee altitude
1,385.046 km
Perigee altitude
1,081.506 km
Semi-major axis
7,611.413 km
Eccentricity
0.01994
Inclination
99.8283°
RAAN
166.3772°
Arg. of periapsis
39.841°
True anomaly
75.66145°
Mean anomaly
73.456°
Eccentric anomaly
74.55722°
Mean motion
3.26848 °/min
Orbital period
110.14 mins
BSTAR
-0.0005658
Loading maneuver chart data...
Computing Atmospheric mass density...
Loading historical data...
Loading historical data...
Loading historical data...
Loading historical data...
Loading historical data...
Loading historical data...
Loading historical data...

Documentation

Showing up to 5 results
|